Home   Weather   Mabalacat   Past weeks

Flag for Philippines Past Weather in Mabalacat, Philippines — Yesterday and Last 2 Weeks

Now
77 °F

Partly cloudy.


Feels Like: 79 °F
Forecast: 70 / 84 °F
Wind: 10 mph from East

Location: Clarkfield Pampanga International Airport

Current Time: Jan 16, 2017 at 7:20:07 pm

Latest Report: Jan 16, 2017 at 7:00 pm


Visibility: N/A

Pressure: 29.98 "Hg

Humidity: 65%

Dew Point: 64 °F

Location of MabalacatLocation

Past Weather in Mabalacat — Graph

°F

Mabalacat Temperature Yesterday

Maximum temperature yesterday: 86 °F (at 12:00 pm)
Minimum temperature yesterday: 75 °F (at 2:00 am)
Average temperature yesterday: 79 °F

High & Low Weather Summary for the Past Weeks

 TemperatureHumidityPressure
High100 °F (Jan 2, 6:00 pm)94% (Jan 11, 5:00 am)30.01 "Hg (Jan 11, 5:00 am)
Low70 °F (Jan 8, 6:00 am)40% (Jan 2, 6:00 pm)29.77 "Hg (Jan 7, 2:00 pm)
Average79 °F74%29.89 "Hg
* Reported Jan 1 6:00 pm — Jan 16 6:00 pm, Mabalacat, Weather by CustomWeather, © 2017

Note: Actual official high and low records may vary slightly from our data, if they occured in-between our weather recording intervals... More about our weather records

Advertising

Mabalacat Weather History for the Previous 24 Hours

Scroll right to see more
 ConditionsComfort  
Time TempWeatherWind HumidityBarometerVisibility
6:00 pm
Mon, Jan 16
79 °FPartly cloudy.15 mph65%29.95 "HgN/A
5:00 pm81 °FBroken clouds.12 mph62%29.92 "HgN/A
4:00 pm82 °FPartly sunny.12 mph58%29.89 "HgN/A
3:00 pm82 °FBroken clouds.6 mph58%29.89 "HgN/A
2:00 pm84 °FBroken clouds.8 mph55%29.89 "HgN/A
1:00 pm82 °FBroken clouds.7 mph58%29.92 "HgN/A
12:00 pm82 °FBroken clouds.7 mph58%29.95 "HgN/A
11:00 am81 °FBroken clouds.7 mph62%29.95 "HgN/A
10:00 am79 °FBroken clouds.6 mph65%29.98 "HgN/A
9:00 am77 °FBroken clouds.7 mph69%29.98 "HgN/A
8:00 am75 °FBroken clouds.6 mph74%29.98 "HgN/A
7:00 am73 °FBroken clouds.7 mph78%29.95 "HgN/A
6:00 am73 °FMostly cloudy.8 mph83%29.92 "HgN/A
5:00 am73 °FPartly cloudy.5 mph89%29.89 "HgN/A
4:00 am73 °FPassing clouds.5 mph89%29.89 "HgN/A
3:00 am73 °FPassing clouds.5 mph89%29.89 "HgN/A
2:00 am73 °FPassing clouds.5 mph89%29.89 "HgN/A
1:00 am75 °FPassing clouds.5 mph83%29.92 "Hg5 mi
12:00 am75 °FPartly cloudy.3 mph78%29.95 "Hg5 mi
11:00 pm
Sun, Jan 15
75 °FPartly cloudy.6 mph83%29.95 "Hg5 mi
10:00 pm75 °FPartly cloudy.3 mph89%29.95 "Hg5 mi
9:00 pm75 °FMostly cloudy.5 mph89%29.95 "Hg5 mi
8:00 pm75 °FLight rain. Mostly cloudy.5 mph89%29.92 "Hg4 mi
7:00 pm75 °FLight rain. Mostly cloudy.5 mph94%29.92 "Hg4 mi
Weather by CustomWeather, © 2017

See weather overviewHow to use our weather pages